Fort Myers Airport, FL

6:13 AM EDT on July 28, 2017 (GMT -0400)
Southwest Florida International

Weather History for KRSW - September, 2013

Change the Weather History Date:

Thursday, September 19, 2013

  Actual Average Record
Temperature  
Mean Temperature 80 °F -  
Max Temperature 88 °F 89 °F 95 °F (1942)
Min Temperature 72 °F 73 °F 68 °F (1981)
Cooling Degree Days 15    
Growing Degree Days 30 (Base 50)    
Moisture  
Dew Point 73 °F    
Average Humidity 85    
Maximum Humidity 100    
Minimum Humidity 55    
Precipitation  
Precipitation 0.00 in - - ()
Sea Level Pressure  
Sea Level Pressure 29.99 in    
Wind  
Wind Speed 5 mph (ENE)    
Max Wind Speed 16 mph    
Max Gust Speed 21 mph    
Visibility 10 miles    
Events Rain    
Averages and records for this station are not official NWS values.
T = Trace of Precipitation, MM = Missing Value Source: NWS Daily Summary

Daily Weather History Graph

Daily Weather History Graph

Search for Another Location

Airport or City:

Trip Planner

Search our weather history database for the weather conditions in past years. The results will help you decide how hot, cold, wet, or windy it might be!

Date:

Astronomy

Sep. 19, 2013 Rise Set
Actual Time 7:14 AM EDT 7:26 PM EDT
Civil Twilight 6:51 AM EDT 7:49 PM EDT
Nautical Twilight 6:24 AM EDT 8:16 PM EDT
Astronomical Twilight 5:57 AM EDT 8:43 PM EDT
Moon 7:31 PM EDT (9/19) 7:17 AM EDT (9/19)
Length of Visible Light 12h 58m
Length of Day
12h 12m
Full, 100% of the Moon is Illuminated
Sep 19
Full
Sep 26
Last Quarter
Oct 4
New
Oct 11
First Quarter
Oct 18
Full

Hourly Weather History & Observations

Time (EDT) Temp. Heat Index Dew Point Humidity Pressure Visibility Wind Dir Wind Speed Gust Speed Precip Events Conditions
12:07 AM 73.4 °F - 71.6 °F 94% 30.00 in 10.0 mi ENE 8.1 mph - N/A   Scattered Clouds
12:53 AM 73.0 °F - 72.0 °F 96% 29.99 in 10.0 mi East 4.6 mph - N/A   Clear
1:53 AM 73.0 °F - 73.0 °F 100% 29.98 in 10.0 mi Calm Calm - N/A   Clear
2:24 AM 73.4 °F - 71.6 °F 94% 29.98 in 10.0 mi NE 4.6 mph - N/A   Partly Cloudy
2:53 AM 73.0 °F - 72.0 °F 96% 29.96 in 10.0 mi NE 5.8 mph - N/A   Partly Cloudy
3:53 AM 73.0 °F - 71.1 °F 93% 29.95 in 10.0 mi ENE 3.5 mph - N/A   Clear
4:53 AM 73.0 °F - 71.1 °F 93% 29.96 in 10.0 mi Calm Calm - N/A   Clear
5:53 AM 73.0 °F - 71.1 °F 93% 29.97 in 10.0 mi Calm Calm - N/A   Clear
6:53 AM 72.0 °F - 71.1 °F 97% 29.98 in 8.0 mi North 3.5 mph - N/A   Clear
7:53 AM 73.9 °F - 72.0 °F 93% 29.99 in 9.0 mi NE 3.5 mph - N/A   Clear
8:53 AM 77.0 °F - 73.0 °F 88% 30.00 in 10.0 mi NE 5.8 mph - N/A   Clear
9:53 AM 80.1 °F 84.5 °F 73.9 °F 81% 30.01 in 10.0 mi East 4.6 mph - N/A   Clear
10:50 AM 82.4 °F 89.5 °F 75.2 °F 79% 30.03 in 10.0 mi ENE 5.8 mph - N/A   Mostly Cloudy
10:53 AM 82.9 °F 90.2 °F 75.0 °F 77% 30.02 in 10.0 mi ENE 6.9 mph - N/A   Scattered Clouds
11:53 AM 84.0 °F 90.2 °F 73.0 °F 69% 30.02 in 10.0 mi ESE 3.5 mph - N/A   Partly Cloudy
12:53 PM 86.0 °F 92.2 °F 72.0 °F 63% 30.01 in 10.0 mi Calm Calm - N/A   Scattered Clouds
1:53 PM 88.0 °F 92.9 °F 70.0 °F 55% 29.98 in 10.0 mi East 5.8 mph - N/A   Scattered Clouds
2:53 PM 81.0 °F 86.2 °F 73.9 °F 79% 29.97 in 10.0 mi ENE 10.4 mph - 0.00 in Rain Light Rain
3:53 PM 84.0 °F 91.2 °F 73.9 °F 72% 29.96 in 10.0 mi ENE 16.1 mph 20.7 mph N/A   Scattered Clouds
4:53 PM 81.0 °F 86.2 °F 73.9 °F 79% 29.96 in 10.0 mi ENE 11.5 mph - N/A   Scattered Clouds
5:53 PM 82.0 °F 87.4 °F 73.0 °F 74% 29.97 in 10.0 mi ENE 8.1 mph - N/A   Clear
6:53 PM 81.0 °F 85.2 °F 72.0 °F 74% 29.98 in 10.0 mi NE 9.2 mph - N/A   Clear
7:53 PM 78.1 °F - 73.0 °F 84% 29.99 in 10.0 mi ENE 9.2 mph - N/A   Mostly Cloudy
8:53 PM 77.0 °F - 75.0 °F 94% 30.00 in 10.0 mi East 5.8 mph - 0.00 in Rain Light Rain
9:53 PM 77.0 °F - 73.9 °F 90% 30.01 in 10.0 mi East 5.8 mph - 0.00 in   Overcast
10:53 PM 75.9 °F - 73.0 °F 91% 30.02 in 10.0 mi East 5.8 mph - N/A   Partly Cloudy
11:53 PM 75.0 °F - 72.0 °F 90% 30.00 in 10.0 mi East 4.6 mph - N/A   Clear